#timestamp,LO_Frequency,Hit,StdDev 
1458061215.4,286046994.2,N
1458061235.2,286046992.8,N
1458061255.0,286046994.7,N
1458061255.9,286046994.7,N
1458061275.8,286046991.7,N
1458061295.6,286046992.2,N
1458061315.4,286046992.8,N
1458061335.3,286046994.5,N
1458061355.1,286046991.9,N
1458061356.0,286046991.9,N
1458061375.8,286046993.9,N
1458061395.7,286046995.7,N
1458061415.5,286046992.4,N
1458061435.3,286046995.9,N
1458061455.2,286046995.8,N
1458061475.9,286046996.1,N
1458061495.7,286046996.2,N
1458061515.6,286046996.0,N
1458061535.4,286046995.4,N
1458061555.2,286046994.0,N
1458061575.0,286046994.7,N
1458061576.0,286046994.7,N
1458061595.8,286046997.2,N
1458061615.6,286046993.7,N
1458061635.4,286046993.6,N
1458061655.3,286046995.3,N
1458061675.1,286046995.1,N
1458061695.8,286046995.4,Y
1458061715.7,286047001.9,P
1458061735.5,286047004.0,N
1458061755.3,286047003.7,N
1458061775.2,286047002.5,N
1458061795.0,286047002.5,N
1458061795.9,286047002.5,N
1458061815.7,286047000.1,N
1458061835.6,286047003.6,N
1458061855.4,286046998.3,N
1458061875.2,286047000.0,N
1458061895.1,286047000.4,N
1458061896.0,286047000.4,N
1458061915.8,286046998.8,N
1458061935.6,286046998.1,N
1458061955.5,286046998.9,N
1458061975.3,286046999.4,N
1458061995.1,286046999.0,N
1458062015.9,286047000.8,N
1458062035.7,286046998.7,N
1458062055.5,286046999.5,N
1458062075.3,286046997.5,N
1458062095.2,286046995.8,N
1458062115.0,286046991.8,Y
1458062115.9,286046991.8,P
1458062135.8,286046992.5,N
1458062155.6,286046995.9,N
1458062175.4,286046993.6,N
1458062195.2,286046992.4,N
1458062215.1,286046992.9,N
1458062216.0,286046992.9,N
1458062235.8,286046996.3,N
1458062255.6,286046998.6,N
1458062275.5,286046999.2,N
1458062295.3,286047000.6,N
1458062315.1,286046999.0,N
1458062335.9,286046998.9,N
1458062355.7,286046997.0,N
1458062375.5,286046994.6,N
1458062395.4,286046995.1,N
1458062415.2,286046995.4,N
1458062435.0,286046993.7,N
1458062435.9,286046993.7,N
1458062455.8,286046997.2,N
1458062475.6,286047001.8,N
1458062495.4,286047000.8,N
1458062515.3,286046999.0,N
1458062535.1,286047002.5,N
1458062536.0,286047002.5,N
1458062555.8,286046999.6,N
1458062575.6,286046997.5,N
1458062595.5,286046996.6,N
1458062615.3,286047000.9,N
1458062635.1,286047002.3,N
1458062655.9,286047001.8,N
1458062675.7,286047003.4,N
1458062695.5,286047002.6,N
1458062715.4,286047000.3,N
1458062735.2,286046998.2,N
1458062755.0,286046998.9,N
1458062755.9,286046998.9,N
1458062775.8,286046996.9,N
1458062795.6,286046997.1,N
1458062815.4,286046995.1,N
1458062835.3,286046996.7,N
1458062855.1,286046997.2,N
1458062856.0,286046997.2,N
1458062875.8,286046997.1,N
1458062895.7,286046996.7,N
1458062915.5,286046999.1,N
1458062935.3,286046998.3,N
1458062955.1,286046995.6,N
1458062975.9,286046994.2,N
1458062995.7,286046993.4,N
1458063015.5,286046990.3,Y
1458063035.4,286046993.4,P
1458063055.2,286046995.5,N
1458063075.0,286047001.2,N
1458063075.9,286047001.2,N
1458063095.8,286047002.7,N
1458063115.6,286046998.2,N
1458063135.4,286046997.0,N
1458063155.3,286047003.9,N
1458063175.1,286047002.1,N
1458063195.8,286047001.5,N
1458063215.7,286046999.2,N
1458063235.5,286046994.9,N
1458063255.3,286046996.7,N
1458063275.2,286046997.0,N
1458063295.9,286046996.4,N
1458063315.7,286046994.5,N
1458063335.5,286046993.4,N
1458063355.4,286046992.3,N
1458063375.2,286046988.6,Y
1458063395.0,286046990.6,P
1458063396.0,286046990.6,N
1458063415.8,286046996.4,N
1458063435.6,286046994.1,N
1458063455.4,286046993.9,N
1458063475.3,286046995.6,N
1458063495.1,286046991.9,Y
1458063515.8,286047000.6,P
1458063535.7,286046999.0,N
1458063555.5,286047002.0,N
1458063575.3,286047002.5,N
1458063595.2,286047002.3,N
1458063615.0,286046998.8,N
1458063615.9,286046998.8,N
1458063635.7,286046998.8,N
1458063655.6,286046998.9,N
1458063675.4,286047001.0,N
1458063695.2,286046999.3,N
1458063715.1,286046995.1,N
1458063716.0,286046995.1,N
1458063735.8,286046997.7,N
1458063755.6,286046993.4,N
1458063775.5,286046994.9,N
1458063795.3,286046997.5,N
1458063815.1,286046995.9,N
1458063835.9,286046993.4,N
1458063855.7,286046997.8,N
1458063875.5,286046995.3,N
1458063895.3,286046997.2,N
1458063915.2,286047001.0,N
1458063935.0,286047000.7,N
1458063935.9,286047000.7,N
1458063955.7,286046996.9,N
1458063975.6,286046995.6,N
1458063995.4,286046997.5,N
1458064015.2,286047002.7,N
1458064035.1,286047000.8,N
1458064036.0,286047000.8,N
1458064055.8,286047002.1,N
1458064075.6,286047002.7,N
1458064095.5,286047000.1,N
1458064115.3,286046999.3,N
1458064135.1,286047002.3,N
1458064155.9,286046996.6,N
1458064175.7,286046998.8,N
1458064195.5,286047000.7,N
1458064215.4,286047003.9,N
1458064235.2,286047003.3,N
1458064255.0,286047003.9,N
1458064255.9,286047003.9,N
1458064275.7,286047001.4,N
1458064295.6,286047003.2,N
1458064315.4,286047007.5,N
1458064335.2,286047010.5,Y
1458064355.1,286047011.9,P
1458064356.0,286047011.9,N
1458064375.8,286047013.4,N
1458064395.7,286047016.3,Y
1458064415.5,286047007.4,P
1458064435.3,286047008.9,P
1458064455.1,286047009.0,P
1458064475.9,286047008.5,Y
1458064495.7,286047002.4,P
1458064515.5,286047001.7,N
1458064535.4,286047005.6,N
1458064555.2,286047004.1,N
1458064575.0,286047002.3,N
1458064575.9,286047002.3,N
1458064595.8,286046998.6,N
1458064615.6,286047004.3,N
1458064635.4,286047002.3,N
1458064655.3,286047002.6,N
1458064675.1,286046999.3,N
1458064676.0,286046999.3,N
1458064695.8,286046996.3,N
1458064715.7,286046996.4,N
1458064735.5,286046993.4,N
1458064755.3,286046995.9,N
1458064775.2,286046993.1,N
1458064795.9,286046992.6,N
